Voltar ao catálogo

ARIANE 42P DEB

AtivoLEO
NORAD 44510·DEBRIS·🇫🇷 France

Lançado Aug 10, 1992 de Guiana Space Centre

Loading…

Próximas Passagens (próximas 24 horas)

TLE

AtualizadoSource: Space-Track

Época: Sep 13, 2026, 23:26 UTC

1 44510U 92052H   26256.97703407  .00000553  00000-0  25756-2 0  9990
2 44510  66.0594 113.3021 0081153 248.7372 110.4964 12.82443886330982

Acompanhe ARIANE 42P DEB em tempo real com AllMySat

Download on the App Store